DW4707 Campi Bisenzio - Firenze IT current weather conditions

sailwx.info

Wind from 089

Air temperature 20.0° C
Dewpoint 6.7° C

Last reported at 2015-Mar-29 11:47 UTC.
Time now 2015-Mar-29 12:27 UTC

Location: N 43°50' E 011°08'.
View on Google Maps.

See reports from other nearby stations

  
Tides and Currents Weather Stations Pressure Air Temp Water Temp Dewpoint Dewpoint Depression Visibility Wind Speed Wind Dir Waves Ship Positions
date/time (UTC)wind fromknots sea level pressurealtimeterstation pressurevisibilityair tempwater tempwave heightnotes
2015-Mar-29 11:47 089 20.0
2015-Mar-29 11:41 045 19.4
2015-Mar-29 11:36 045 19.4
2015-Mar-29 11:31 095 19.4
2015-Mar-29 11:26 022 20.0
2015-Mar-29 11:21 022 20.0
2015-Mar-29 11:16 108 20.0
2015-Mar-29 11:11 112 19.4
2015-Mar-29 11:06 158 19.4
2015-Mar-29 11:01 135 19.4
2015-Mar-29 10:56 045 18.9
2015-Mar-29 10:51 068 18.3
2015-Mar-29 10:46 061 18.3
2015-Mar-29 10:41 059 18.3
2015-Mar-29 10:36 011 18.9
2015-Mar-29 10:31 034 18.9
2015-Mar-29 10:26 022 17.8
2015-Mar-29 10:21 022 18.3
2015-Mar-29 10:16 068 17.8
2015-Mar-29 10:11 112 0 gusting 0 17.8
2015-Mar-29 10:06 045 17.8
2015-Mar-29 10:01 202 17.8
2015-Mar-29 09:56 180 0 gusting 1 17.8
2015-Mar-29 09:51 180 17.8
2015-Mar-29 09:47 214 17.2
2015-Mar-29 09:42 16.7
2015-Mar-29 09:36 066 16.7
2015-Mar-29 09:31 118 16.7
2015-Mar-29 09:26 180 15.6
2015-Mar-29 09:21 022 15.6
2015-Mar-29 09:16 022 0 gusting 0 15.6
2015-Mar-29 09:11 090 16.1
2015-Mar-29 09:06 180 16.1
2015-Mar-29 09:01 197 0 gusting 0 15.6
2015-Mar-29 08:56 045 15.6
2015-Mar-29 08:51 089 15.6
2015-Mar-29 08:46 131 15.0
2015-Mar-29 08:41 135 14.4
2015-Mar-29 08:36 024 14.4
2015-Mar-29 08:31 081 15.6
2015-Mar-29 08:26 068 15.6
2015-Mar-29 08:21 158 15.0
2015-Mar-29 08:17 078 14.4
2015-Mar-29 08:11 022 13.3
2015-Mar-29 08:06 149 13.9
2015-Mar-29 08:01 101 13.3
2015-Mar-29 07:56 045 13.3
2015-Mar-29 07:51 045 13.3
2015-Mar-29 07:46 058 13.3
2015-Mar-29 07:41 112 13.3
2015-Mar-29 07:36 073 12.8
2015-Mar-29 07:31 154 13.3
2015-Mar-29 07:26 135 12.8
2015-Mar-29 07:21 022 12.8
2015-Mar-29 07:16 186 12.2
2015-Mar-29 07:11 292 12.2
2015-Mar-29 07:06 133 11.7
2015-Mar-29 07:01 045 11.1
2015-Mar-29 06:57 225 0 gusting 1 11.1
2015-Mar-29 06:51 202 11.1
2015-Mar-29 06:46 110 10.6
2015-Mar-29 06:41 022 10.0
2015-Mar-29 06:36 045 10.0
2015-Mar-29 06:31 022 10.0
2015-Mar-29 06:26 202 9.4
2015-Mar-29 06:21 8.9
2015-Mar-29 06:16 180 7.8
2015-Mar-29 06:11 180 7.2
2015-Mar-29 06:06 024 6.7
2015-Mar-29 06:02 202 6.7
2015-Mar-29 05:56 202 6.1
2015-Mar-29 05:51 202 6.1
2015-Mar-29 05:46 202 0 gusting 0 6.1
2015-Mar-29 05:41 292 6.1
2015-Mar-29 05:37 292 6.1
2015-Mar-29 05:31 242 6.1
2015-Mar-29 05:27 225 6.1
2015-Mar-29 05:22 180 6.1
2015-Mar-29 05:16 138 6.1
2015-Mar-29 05:11 135 6.1
2015-Mar-29 05:06 135 6.1
2015-Mar-29 05:01 118 6.1
2015-Mar-29 04:56 090 6.1
2015-Mar-29 04:52 093 6.1
2015-Mar-29 04:47 195 6.1
2015-Mar-29 04:41 202 6.1
2015-Mar-29 04:36 202 6.1
2015-Mar-29 04:32 220 6.1
2015-Mar-29 04:26 225 6.7
2015-Mar-29 04:21 270 6.7
2015-Mar-29 04:16 202 6.7
2015-Mar-29 04:11 225 6.7
2015-Mar-29 04:06 254 6.7
2015-Mar-29 04:01 180 6.7
2015-Mar-29 03:56 068 6.7
2015-Mar-29 03:51 068 6.7
2015-Mar-29 03:46 135 6.7
2015-Mar-29 03:41 112 6.7
2015-Mar-29 03:36 090 6.7
2015-Mar-29 03:31 090 6.7
2015-Mar-29 03:26 090 6.7
2015-Mar-29 03:22 090 6.7
2015-Mar-29 03:17 112 6.7
2015-Mar-29 03:11 112 6.7
2015-Mar-29 03:07 112 7.2
2015-Mar-29 03:02 135 7.2
2015-Mar-29 02:57 180 7.2
2015-Mar-29 02:51 158 7.2
2015-Mar-29 02:47 158 7.2
2015-Mar-29 02:42 158 7.2
2015-Mar-29 02:36 180 7.2
2015-Mar-29 02:31 202 7.8
2015-Mar-29 02:26 202 7.8
2015-Mar-29 02:22 068 7.8
2015-Mar-29 02:16 085 7.8
2015-Mar-29 02:11 090 7.8
2015-Mar-29 02:07 7.8
2015-Mar-29 02:02 8.3
2015-Mar-29 01:57 8.3
2015-Mar-29 01:52 045 8.3
2015-Mar-29 01:47 002 8.3
2015-Mar-29 01:41 8.3
2015-Mar-29 01:36 020 8.3
2015-Mar-29 01:32 8.3
2015-Mar-29 01:27 202 8.3
2015-Mar-29 01:22 128 8.9
2015-Mar-29 01:17 315 8.9
2015-Mar-29 01:12 202 8.9
2015-Mar-29 01:07 341 0 8.9
2015-Mar-29 01:02 8.9
2015-Mar-29 00:57 8.9
2015-Mar-29 00:52 358 8.9
2015-Mar-29 00:47 112 8.9
2015-Mar-29 00:42 135 8.9
2015-Mar-29 00:37 145 8.9
2015-Mar-29 00:31 030 8.9
2015-Mar-29 00:27 199 8.9
2015-Mar-29 00:22 325 8.9
2015-Mar-29 00:17 8.9
2015-Mar-29 00:12 8.9
2015-Mar-29 00:07 8.9
2015-Mar-29 00:01 8.9
2015-Mar-28 23:57 022 8.9
2015-Mar-28 23:52 8.9
2015-Mar-28 23:47 281 9.4
2015-Mar-28 23:41 270 9.4
2015-Mar-28 23:36 202 9.4
2015-Mar-28 23:32 202 9.4
2015-Mar-28 23:26 315 9.4
2015-Mar-28 23:22 045 9.4
2015-Mar-28 23:17 338 9.4
2015-Mar-28 23:12 338 9.4
2015-Mar-28 23:07 022 9.4
2015-Mar-28 23:02 022 9.4
2015-Mar-28 22:57 9.4
2015-Mar-28 22:52 022 10.0
2015-Mar-28 22:47 022 10.0
2015-Mar-28 22:41 022 10.0
2015-Mar-28 22:37 010 10.0
2015-Mar-28 22:32 339 10.0
2015-Mar-28 22:27 292 10.0
2015-Mar-28 22:22 292 10.0
2015-Mar-28 22:17 292 10.0
2015-Mar-28 22:12 292 10.0
2015-Mar-28 22:07 292 10.0
2015-Mar-28 22:02 292 10.6
2015-Mar-28 21:57 292 10.6
2015-Mar-28 21:52 292 10.6
2015-Mar-28 21:47 292 10.6
2015-Mar-28 21:42 292 11.1
2015-Mar-28 21:37 225 11.7
2015-Mar-28 21:32 225 11.7
2015-Mar-28 21:26 11.7
2015-Mar-28 21:22 202 11.7
2015-Mar-28 21:17 11.7
2015-Mar-28 21:12 11.7
2015-Mar-28 21:07 022 11.7
2015-Mar-28 21:02 022 11.7
2015-Mar-28 20:57 045 11.7
2015-Mar-28 20:52 022 11.7
2015-Mar-28 20:47 022 11.7
2015-Mar-28 20:42 022 12.2
2015-Mar-28 20:37 022 12.2
2015-Mar-28 20:32 022 12.2
2015-Mar-28 20:27 022 12.8
2015-Mar-28 20:22 043 12.8
2015-Mar-28 20:17 022 12.8
2015-Mar-28 20:12 022 12.8
2015-Mar-28 20:07 022 13.3
2015-Mar-28 20:02 022 13.3
2015-Mar-28 19:57 045 13.3
2015-Mar-28 19:52 045 14.4
2015-Mar-28 19:47 045 14.4
2015-Mar-28 19:42 045 14.4
2015-Mar-28 19:37 202 14.4
2015-Mar-28 19:32 022 14.4
2015-Mar-28 19:27 045 14.4
2015-Mar-28 19:22 180 15.0
2015-Mar-28 19:17 225 15.0
2015-Mar-28 19:12 270 15.0
2015-Mar-28 19:07 194 15.0
2015-Mar-28 19:02 180 14.4
2015-Mar-28 18:57 248 14.4
2015-Mar-28 18:52 270 14.4
2015-Mar-28 18:47 270 15.0
2015-Mar-28 18:42 270 15.0
2015-Mar-28 18:37 270 15.6
2015-Mar-28 18:32 270 15.6
2015-Mar-28 18:27 270 16.1
2015-Mar-28 18:22 202 16.1
2015-Mar-28 18:17 16.7
2015-Mar-28 18:12 16.7
2015-Mar-28 18:07 016 16.7
2015-Mar-28 18:02 16.7
2015-Mar-28 17:57 17.2
2015-Mar-28 17:52 17.2
2015-Mar-28 17:47 022 17.2
2015-Mar-28 17:42 045 17.2
2015-Mar-28 17:37 022 17.8
2015-Mar-28 17:32 022 17.8
2015-Mar-28 17:27 18.3
2015-Mar-28 17:22 022 18.3
2015-Mar-28 17:17 18.3
2015-Mar-28 17:12 020 18.3
2015-Mar-28 17:07 022 0 gusting 0 18.9
2015-Mar-28 17:02 001 18.9
2015-Mar-28 16:57 18.9
2015-Mar-28 16:52 022 0 gusting 0 18.9
2015-Mar-28 16:47 022 18.9
2015-Mar-28 16:42 022 18.9
2015-Mar-28 16:37 346 1 gusting 1 19.4
2015-Mar-28 16:32 19.4
2015-Mar-28 16:27 19.4
2015-Mar-28 16:22 344 19.4
2015-Mar-28 16:17 19.4
2015-Mar-28 16:12 022 1 gusting 1 19.4
2015-Mar-28 16:07 022 0 gusting 1 19.4
2015-Mar-28 16:02 022 1 gusting 1 19.4
2015-Mar-28 15:57 041 20.0
2015-Mar-28 15:52 077 20.0
2015-Mar-28 15:47 20.0
2015-Mar-28 15:42 20.0
2015-Mar-28 15:37 018 20.0
2015-Mar-28 15:32 045 20.0
2015-Mar-28 15:27 022 19.4
2015-Mar-28 15:22 348 20.0
2015-Mar-28 15:17 022 1 gusting 1 20.0
2015-Mar-28 15:12 045 19.4
2015-Mar-28 15:07 19.4
2015-Mar-28 15:02 037 20.0
2015-Mar-28 14:57 045 19.4
2015-Mar-28 14:52 022 0 gusting 1 19.4
2015-Mar-28 14:47 022 1 gusting 1 20.0
2015-Mar-28 14:42 045 1 gusting 1 20.0
2015-Mar-28 14:37 005 1 gusting 2 20.0
2015-Mar-28 14:32 022 2 gusting 5 19.4
2015-Mar-28 14:27 110 1 gusting 2 20.0
2015-Mar-28 14:22 047 4 gusting 5 19.4
2015-Mar-28 14:17 20.0
2015-Mar-28 14:12 357 0 gusting 4 20.0
2015-Mar-28 14:07 330 20.0
2015-Mar-28 14:02 022 19.4
2015-Mar-28 13:57 19.4
2015-Mar-28 13:52 20.0
2015-Mar-28 13:47 045 20.0
2015-Mar-28 13:42 046 20.0
2015-Mar-28 13:37 180 2 gusting 4 20.0
2015-Mar-28 13:32 20.0
2015-Mar-28 13:27 022 0 gusting 0 20.0
2015-Mar-28 13:22 043 20.0
2015-Mar-28 13:17 022 0 gusting 2 20.0
2015-Mar-28 13:12 015 20.0
2015-Mar-28 13:07 044 20.0
2015-Mar-28 13:02 338 4 gusting 4 20.6
2015-Mar-28 12:57 005 20.0
2015-Mar-28 12:52 202 20.0
2015-Mar-28 12:47 20.0
2015-Mar-28 12:42 094 3 gusting 6 20.0
2015-Mar-28 12:37 315 0 gusting 1 20.0
2015-Mar-28 12:32 19.4
2015-Mar-28 12:27 015 0 gusting 0 19.4
2015-Mar-28 12:22 045 0 gusting 4 19.4
2015-Mar-28 12:17 19.4
2015-Mar-28 12:12 013 2 gusting 2 19.4
2015-Mar-28 12:07 068 0 gusting 4 19.4
2015-Mar-28 12:02 338 0 gusting 4 19.4
2015-Mar-28 11:57 129 1 gusting 2 19.4
2015-Mar-28 11:52 20.0
2015-Mar-28 11:47 20.0
2015-Mar-28 11:42 056 2 gusting 2 19.4
2015-Mar-28 11:37 359 0 gusting 5 19.4
2015-Mar-28 11:32 022 1 gusting 5 19.4
2015-Mar-28 11:27 339 0 gusting 5 19.4
2015-Mar-28 11:22 19.4
2015-Mar-28 11:17 19.4
2015-Mar-28 11:12 342 0 gusting 2 18.9
2015-Mar-28 11:07 022 2 gusting 4 18.3
2015-Mar-28 11:02 068 1 gusting 4 18.9
2015-Mar-28 10:57 322 18.9
2015-Mar-28 10:52 045 2 gusting 7 18.9
2015-Mar-28 10:47 022 2 gusting 4 18.9
2015-Mar-28 10:42 18.9
2015-Mar-28 10:37 341 0 gusting 5 18.9
2015-Mar-28 10:32 320 18.9
2015-Mar-28 10:27 006 2 gusting 4 18.9
2015-Mar-28 10:22 033 0 gusting 1 18.9
2015-Mar-28 10:17 230 4 gusting 6 18.9
2015-Mar-28 10:12 040 0 gusting 6 18.9
2015-Mar-28 10:07 044 1 gusting 5 18.9
2015-Mar-28 10:02 338 18.9
2015-Mar-28 09:57 030 1 gusting 5 18.9
2015-Mar-28 09:52 022 18.9
2015-Mar-28 09:47 18.9
2015-Mar-28 09:42 171 0 gusting 2 18.3
2015-Mar-28 09:37 18.3
2015-Mar-28 09:32 045 6 gusting 10 17.8
2015-Mar-28 09:27 18.3
2015-Mar-28 09:22 18.3
2015-Mar-28 09:17 068 2 gusting 2 18.3
2015-Mar-28 09:12 18.3
2015-Mar-28 09:07 022 0 gusting 0 18.3
2015-Mar-28 09:02 045 0 gusting 1 18.3
2015-Mar-28 08:57 135 1 gusting 1 18.3
2015-Mar-28 08:52 18.3
2015-Mar-28 08:47 035 1 gusting 1 17.8
2015-Mar-28 08:42 17.8
2015-Mar-28 08:37 045 0 gusting 2 17.8
2015-Mar-28 08:32 17.8
2015-Mar-28 08:27 039 17.8
2015-Mar-28 08:22 180 17.8
2015-Mar-28 08:17 202 17.8
2015-Mar-28 08:12 171 17.2
2015-Mar-28 08:07 045 17.2
2015-Mar-28 08:02 17.2
2015-Mar-28 07:57 327 16.7
2015-Mar-28 07:52 022 16.7
2015-Mar-28 07:47 022 16.7
2015-Mar-28 07:42 101 16.7
2015-Mar-28 07:37 315 16.7
2015-Mar-28 07:32 16.7
2015-Mar-28 07:27 135 16.7
2015-Mar-28 07:22 045 16.7
2015-Mar-28 07:17 068 16.1
2015-Mar-28 07:12 085 16.1
2015-Mar-28 07:07 045 16.1
2015-Mar-28 07:02 022 15.6
2015-Mar-28 06:57 090 15.6
2015-Mar-28 06:52 022 15.0
2015-Mar-28 06:47 022 15.0
2015-Mar-28 06:42 248 14.4
2015-Mar-28 06:37 022 14.4
2015-Mar-28 06:32 022 13.9
2015-Mar-28 06:27 026 13.3
2015-Mar-28 06:22 090 12.2
2015-Mar-28 06:17 180 11.7
2015-Mar-28 06:12 030 10.0
2015-Mar-28 06:07 045 10.0
2015-Mar-28 06:02 045 10.0
2015-Mar-28 05:57 039 10.0
2015-Mar-28 05:52 090 9.4
2015-Mar-28 05:47 158 9.4
2015-Mar-28 05:42 180 9.4
2015-Mar-28 05:37 045 9.4
2015-Mar-28 05:32 023 9.4
2015-Mar-28 05:27 270 9.4
2015-Mar-28 05:22 225 9.4
2015-Mar-28 05:17 225 9.4
2015-Mar-28 05:12 225 9.4
2015-Mar-28 05:07 225 9.4
2015-Mar-28 05:02 225 9.4
2015-Mar-28 04:57 010 9.4
2015-Mar-28 04:52 069 10.0
2015-Mar-28 04:47 069 10.0
2015-Mar-28 04:42 069 10.0
2015-Mar-28 04:37 069 10.0
2015-Mar-28 04:32 069 10.0
2015-Mar-28 04:27 069 10.0
2015-Mar-28 04:22 068 10.0
2015-Mar-28 04:17 068 10.0
2015-Mar-28 04:12 068 10.0
2015-Mar-28 04:07 068 10.6
2015-Mar-28 04:02 352 10.6
2015-Mar-28 03:57 022 10.6
2015-Mar-28 03:52 045 10.6
2015-Mar-28 03:47 022 10.6
2015-Mar-28 03:42 022 10.6
2015-Mar-28 03:37 10.6
2015-Mar-28 03:32 022 10.6
2015-Mar-28 03:27 075 10.6
2015-Mar-28 03:22 022 10.6
2015-Mar-28 03:17 022 11.1
2015-Mar-28 03:12 022 11.1
2015-Mar-28 03:07 11.1
2015-Mar-28 03:02 11.1
2015-Mar-28 02:57 11.1
2015-Mar-28 02:52 045 11.1
2015-Mar-28 02:47 045 11.1
2015-Mar-28 02:42 016 10.6
2015-Mar-28 02:37 022 10.6
2015-Mar-28 02:32 040 10.6
2015-Mar-28 02:27 057 10.6
2015-Mar-28 02:22 112 11.1
2015-Mar-28 02:17 338 11.1
2015-Mar-28 02:12 022 11.1
2015-Mar-28 02:07 045 11.1
2015-Mar-28 02:02 068 11.1
2015-Mar-28 01:57 321 11.1
2015-Mar-28 01:52 045 11.1
2015-Mar-28 01:47 045 11.1
2015-Mar-28 01:42 038 11.1
2015-Mar-28 01:37 045 11.1
2015-Mar-28 01:32 022 11.1
2015-Mar-28 01:27 045 11.1
2015-Mar-28 01:22 11.1
2015-Mar-28 01:17 068 11.7
2015-Mar-28 01:12 128 11.7
2015-Mar-28 01:07 045 11.7
2015-Mar-28 01:02 022 11.7
2015-Mar-28 00:57 133 11.1
2015-Mar-28 00:52 315 11.1
2015-Mar-28 00:47 11.1
2015-Mar-28 00:42 135 11.7
2015-Mar-28 00:37 045 11.7
2015-Mar-28 00:32 135 11.7
2015-Mar-28 00:27 012 11.7
2015-Mar-28 00:22 225 11.1
2015-Mar-28 00:17 022 11.1
2015-Mar-28 00:12 138 11.1
2015-Mar-28 00:07 11.1
2015-Mar-28 00:02 045 11.7
2015-Mar-27 23:57 158 11.7
2015-Mar-27 23:52 135 11.7
2015-Mar-27 23:47 068 11.7
2015-Mar-27 23:42 022 11.7
2015-Mar-27 23:37 202 11.7
2015-Mar-27 23:32 022 11.7
2015-Mar-27 23:27 028 11.7
2015-Mar-27 23:22 202 11.7
2015-Mar-27 23:17 045 11.7
2015-Mar-27 23:12 033 11.7
2015-Mar-27 23:07 022 11.7
2015-Mar-27 23:02 090 11.7
2015-Mar-27 22:57 297 11.7
2015-Mar-27 22:52 045 0 gusting 0 11.1
2015-Mar-27 22:47 068 11.1
2015-Mar-27 22:42 182 11.1
2015-Mar-27 22:37 045 11.1
2015-Mar-27 22:32 11.1
2015-Mar-27 22:27 082 11.1
2015-Mar-27 22:22 068 10.6
2015-Mar-27 22:17 135 10.6
2015-Mar-27 22:12 158 10.6
2015-Mar-27 22:07 180 10.6
2015-Mar-27 22:02 10.6
2015-Mar-27 21:57 168 10.6
2015-Mar-27 21:52 202 10.6
2015-Mar-27 21:47 180 10.6
2015-Mar-27 21:42 180 10.6
2015-Mar-27 21:37 180 10.6
2015-Mar-27 21:32 135 10.6
2015-Mar-27 21:27 080 11.1
2015-Mar-27 21:22 068 11.1
2015-Mar-27 21:17 022 1 gusting 1 11.1
2015-Mar-27 21:12 022 11.1
2015-Mar-27 21:07 022 11.1
2015-Mar-27 21:02 022 11.1
2015-Mar-27 20:57 045 11.1
2015-Mar-27 20:52 022 11.1
2015-Mar-27 20:47 022 11.1
2015-Mar-27 20:42 022 11.1
2015-Mar-27 20:37 022 11.1
2015-Mar-27 20:32 022 11.1
2015-Mar-27 20:27 022 11.1
2015-Mar-27 20:22 022 11.1
2015-Mar-27 20:17 135 11.1
2015-Mar-27 20:12 022 11.1
2015-Mar-27 20:07 022 11.1
2015-Mar-27 20:02 068 11.1
2015-Mar-27 19:57 068 11.1
2015-Mar-27 19:52 068 11.1
2015-Mar-27 19:47 068 11.1
2015-Mar-27 19:42 112 11.1
2015-Mar-27 19:37 112 11.7
2015-Mar-27 19:32 090 11.7
2015-Mar-27 19:27 112 11.7
2015-Mar-27 19:22 135 12.2
2015-Mar-27 19:17 068 12.2
2015-Mar-27 19:12 022 12.2
2015-Mar-27 19:07 12.2
2015-Mar-27 19:02 090 0 gusting 1 12.8
2015-Mar-27 18:57 338 0 gusting 0 12.8
2015-Mar-27 18:52 068 12.8
2015-Mar-27 18:47 068 12.8
2015-Mar-27 18:42 056 12.8
2015-Mar-27 18:37 068 12.8
2015-Mar-27 18:32 12.8
2015-Mar-27 18:27 010 0 gusting 0 12.8
2015-Mar-27 18:22 12.8
2015-Mar-27 18:17 045 1 gusting 5 12.8
2015-Mar-27 18:12 069 12.8
2015-Mar-27 18:07 045 13.3
2015-Mar-27 18:02 022 13.3
2015-Mar-27 17:57 019 13.3
2015-Mar-27 17:52 045 13.3
2015-Mar-27 17:47 022 13.3
2015-Mar-27 17:42 225 13.3
2015-Mar-27 17:37 045 13.3
2015-Mar-27 17:32 045 13.3
2015-Mar-27 17:27 033 13.3
2015-Mar-27 17:22 338 13.3
2015-Mar-27 17:17 022 0 gusting 0 13.3
2015-Mar-27 17:12 142 0 gusting 1 13.3
2015-Mar-27 17:07 022 13.3
2015-Mar-27 17:02 022 13.3
2015-Mar-27 16:57 053 13.9
2015-Mar-27 16:52 025 13.9
2015-Mar-27 16:47 022 13.9
2015-Mar-27 16:42 271 13.9
2015-Mar-27 16:37 13.9
2015-Mar-27 16:32 068 13.9
2015-Mar-27 16:27 13.9
2015-Mar-27 16:22 13.9
2015-Mar-27 16:17 045 13.9
2015-Mar-27 16:12 002 13.9
2015-Mar-27 16:07 022 0 gusting 0 13.3
2015-Mar-27 16:02 023 1 gusting 1 13.9
2015-Mar-27 15:57 037 0 gusting 0 13.9
2015-Mar-27 15:52 112 0 gusting 0 13.9
2015-Mar-27 15:47 045 0 gusting 2 13.9
2015-Mar-27 15:42 265 0 gusting 5 13.9
2015-Mar-27 15:37 036 13.9
2015-Mar-27 15:32 315 0 gusting 0 13.9
2015-Mar-27 15:27 061 0 gusting 1 14.4
2015-Mar-27 15:22 045 14.4
2015-Mar-27 15:17 022 14.4
2015-Mar-27 15:12 020 0 gusting 1 14.4
2015-Mar-27 15:07 045 0 gusting 2 14.4
2015-Mar-27 15:02 044 14.4
2015-Mar-27 14:57 022 3 gusting 4 14.4
2015-Mar-27 14:52 180 1 gusting 2 15.0
2015-Mar-27 14:47 043 6 gusting 10 15.0
2015-Mar-27 14:42 049 0 gusting 10 15.0
2015-Mar-27 14:37 315 0 gusting 0 15.0
2015-Mar-27 14:32 022 15.0
2015-Mar-27 14:27 15.0
2015-Mar-27 14:22 320 15.0
2015-Mar-27 14:17 068 15.0
2015-Mar-27 14:12 029 4 gusting 5 15.0
2015-Mar-27 14:07 260 3 gusting 5 15.0
2015-Mar-27 14:02 090 5 gusting 11 15.0
2015-Mar-27 13:57 292 0 gusting 4 15.6
2015-Mar-27 13:52 338 2 gusting 2 15.6
2015-Mar-27 13:47 085 1 gusting 6 15.0
2015-Mar-27 13:42 028 0 gusting 6 15.0
2015-Mar-27 13:37 068 15.0
2015-Mar-27 13:32 022 3 gusting 17 15.0
2015-Mar-27 13:27 099 15.0
2015-Mar-27 13:22 045 2 gusting 4 15.0
2015-Mar-27 13:17 317 15.0
2015-Mar-27 13:12 14.4
2015-Mar-27 13:07 225 1 gusting 1 14.4
2015-Mar-27 13:02 158 14.4
2015-Mar-27 12:57 022 13.9
2015-Mar-27 12:52 13.9
2015-Mar-27 12:47 244 13.9
2015-Mar-27 12:42 301 13.9
2015-Mar-27 12:37 068 2 gusting 2 13.3
2015-Mar-27 12:32 13.3
2015-Mar-27 12:27 321 0 gusting 2 13.3
2015-Mar-27 12:22 047 13.3
2015-Mar-27 12:17 066 12.8
2015-Mar-27 12:12 022 12.8
2015-Mar-27 12:07 068 12.8
2015-Mar-27 12:02 112 12.2